TFL5606 EHAM-LGIR

Flight info

Callsign TFL5606
Flight time N/A
Altitude 37000
Route RENDI2N EDUPO Z739 MISGO DCT DOJOH DCT DODEN DCT NEGIX DCT DINKU M867 XERUM DCT BAVAX DCT RADIZ DCT NIPEL DCT ABISO DCT NEMEK DCT VRANA DCT PETAK DCT PINDO UL607 GIVIS T514 XAVIS XAVIS1A
Aircraft B738/M-SDE3/L

Departure

Time 2026-05-05 06:58
Airport Amsterdam Airport Schiphol (EHAM)

Arrival

Time N/A
Airport Heraklion International Nikos Kazantzakis Airport (LGIR)
Time Latitude Longitude Altitude Speed Heading
2026-05-05 06:34 52.30455 4.76718 -2 ft 0 kts 332°
2026-05-05 06:45 52.30451 4.76721 -2 ft 2 kts 333°
2026-05-05 06:45 52.30434 4.76734 -2 ft 3 kts 337°
2026-05-05 06:45 52.30417 4.76746 -2 ft 2 kts 335°
2026-05-05 06:46 52.30401 4.76756 -2 ft 3 kts
2026-05-05 06:46 52.30384 4.76748 -2 ft 3 kts 43°
2026-05-05 06:46 52.30374 4.76729 -2 ft 1 kts 57°
2026-05-05 06:46 52.30373 4.76727 -2 ft 0 kts 58°
2026-05-05 06:48 52.30379 4.76743 -2 ft 5 kts 57°
2026-05-05 06:48 52.30413 4.76830 -2 ft 12 kts 58°
2026-05-05 06:49 52.30456 4.76943 -2 ft 12 kts 58°
2026-05-05 06:49 52.30499 4.77055 -2 ft 11 kts 57°
2026-05-05 06:49 52.30541 4.77163 -2 ft 11 kts 57°
2026-05-05 06:49 52.30582 4.77269 -2 ft 11 kts 58°
2026-05-05 06:50 52.30621 4.77371 -2 ft 10 kts 58°
2026-05-05 06:50 52.30641 4.77482 -2 ft 10 kts 85°
2026-05-05 06:50 52.30667 4.77581 -2 ft 10 kts 27°
2026-05-05 06:50 52.30735 4.77595 -2 ft 10 kts
2026-05-05 06:51 52.30819 4.77603 -2 ft 16 kts
2026-05-05 06:51 52.30951 4.77615 -2 ft 22 kts
2026-05-05 06:51 52.31119 4.77631 -2 ft 25 kts
2026-05-05 06:51 52.31286 4.77645 -2 ft 23 kts
2026-05-05 06:52 52.31443 4.77640 -2 ft 22 kts 340°
2026-05-05 06:52 52.31556 4.77477 -2 ft 22 kts 303°
2026-05-05 06:52 52.31573 4.77241 -2 ft 21 kts 266°
2026-05-05 06:52 52.31565 4.77006 -2 ft 21 kts 267°
2026-05-05 06:53 52.31557 4.76777 -2 ft 20 kts 262°
2026-05-05 06:53 52.31550 4.76555 -2 ft 19 kts 268°
2026-05-05 06:53 52.31543 4.76339 -2 ft 19 kts 267°
2026-05-05 06:53 52.31536 4.76131 -2 ft 18 kts 266°
2026-05-05 06:54 52.31528 4.75930 -2 ft 17 kts 266°
2026-05-05 06:54 52.31521 4.75736 -2 ft 17 kts 267°
2026-05-05 06:54 52.31515 4.75549 -2 ft 16 kts 266°
2026-05-05 06:54 52.31447 4.75432 -2 ft 16 kts 211°
2026-05-05 06:55 52.31420 4.75269 -2 ft 15 kts 267°
2026-05-05 06:55 52.31414 4.75095 -2 ft 18 kts 267°
2026-05-05 06:55 52.31407 4.74871 -2 ft 21 kts 268°
2026-05-05 06:55 52.31443 4.74677 -1 ft 19 kts 343°
2026-05-05 06:56 52.31573 4.74660 -2 ft 18 kts 356°
2026-05-05 06:56 52.31664 4.74736 -1 ft 13 kts 72°
2026-05-05 06:56 52.31668 4.74792 -2 ft 0 kts 87°
2026-05-05 06:56 52.31676 4.75011 -5 ft 57 kts 86°
2026-05-05 06:57 52.31708 4.75958 -3 ft 125 kts 87°
2026-05-05 06:57 52.31733 4.76755 -1 ft 157 kts 87°
2026-05-05 06:58 52.31788 4.78669 651 ft 167 kts 84°
2026-05-05 06:58 52.31854 4.80553 1769 ft 163 kts 83°
2026-05-05 06:58 52.31930 4.82483 2489 ft 185 kts 83°
2026-05-05 06:58 52.32018 4.84762 2758 ft 215 kts 85°
2026-05-05 06:59 52.31884 4.87308 3290 ft 233 kts 101°
2026-05-05 06:59 52.31309 4.89860 3896 ft 251 kts 110°
2026-05-05 06:59 52.30579 4.92569 4575 ft 266 kts 113°
2026-05-05 06:59 52.29823 4.95350 5527 ft 270 kts 114°
2026-05-05 07:00 52.29139 4.98215 6495 ft 274 kts 107°
2026-05-05 07:00 52.28605 5.01240 7305 ft 281 kts 105°
2026-05-05 07:00 52.28091 5.04351 8182 ft 288 kts 104°
2026-05-05 07:00 52.27562 5.07532 9094 ft 291 kts 105°
2026-05-05 07:01 52.27022 5.10729 10063 ft 292 kts 105°
2026-05-05 07:01 52.26460 5.13997 10618 ft 310 kts 105°
2026-05-05 07:01 52.25848 5.17523 10862 ft 335 kts 105°
2026-05-05 07:01 52.25198 5.21229 11383 ft 348 kts 105°
2026-05-05 07:02 52.24509 5.25027 12259 ft 351 kts 109°
2026-05-05 07:02 52.23347 5.28515 13185 ft 353 kts 125°
2026-05-05 07:02 52.21890 5.31791 13893 ft 360 kts 126°
2026-05-05 07:02 52.20406 5.35087 14687 ft 363 kts 127°
2026-05-05 07:03 52.18909 5.38438 15332 ft 369 kts 127°
2026-05-05 07:03 52.17405 5.41845 16202 ft 368 kts 126°
2026-05-05 07:03 52.15910 5.45258 16968 ft 372 kts 126°
2026-05-05 07:03 52.14401 5.48716 17724 ft 375 kts 125°
2026-05-05 07:04 52.12895 5.52165 18317 ft 383 kts 126°
2026-05-05 07:04 52.11341 5.55719 18927 ft 386 kts 126°
2026-05-05 07:04 52.09772 5.59302 19460 ft 393 kts 127°
2026-05-05 07:04 52.08175 5.62941 20132 ft 395 kts 126°
2026-05-05 07:05 52.07099 5.65391 20609 ft 396 kts 127°
2026-05-05 07:05 52.04882 5.70159 21368 ft 401 kts 131°
2026-05-05 07:05 52.03670 5.72437 21753 ft 403 kts 133°
2026-05-05 07:05 52.01789 5.75848 22318 ft 407 kts 134°
2026-05-05 07:06 51.99900 5.79302 22886 ft 411 kts 133°
2026-05-05 07:06 51.98013 5.82807 23449 ft 414 kts 133°
2026-05-05 07:06 51.96117 5.86351 23919 ft 418 kts 133°
2026-05-05 07:06 51.94205 5.89917 24376 ft 421 kts 134°
2026-05-05 07:07 51.92277 5.93505 24840 ft 424 kts 134°
2026-05-05 07:07 51.90331 5.97123 25302 ft 427 kts 134°
2026-05-05 07:07 51.88375 6.00754 25748 ft 429 kts 134°
2026-05-05 07:07 51.86404 6.04406 26201 ft 432 kts 135°
2026-05-05 07:08 51.84419 6.08071 26639 ft 434 kts 135°
2026-05-05 07:08 51.82413 6.11746 27065 ft 437 kts 135°
2026-05-05 07:08 51.80394 6.15435 27484 ft 440 kts 135°
2026-05-05 07:08 51.78355 6.19157 27899 ft 442 kts 136°
2026-05-05 07:09 51.76336 6.22839 28299 ft 445 kts 136°
2026-05-05 07:09 51.74277 6.26597 28695 ft 447 kts 136°
2026-05-05 07:09 51.72209 6.30372 29077 ft 450 kts 136°
2026-05-05 07:09 51.70131 6.34161 29429 ft 453 kts 136°
2026-05-05 07:10 51.68037 6.37977 29773 ft 455 kts 136°
2026-05-05 07:10 51.65934 6.41802 30111 ft 457 kts 136°
2026-05-05 07:10 51.63817 6.45644 30445 ft 459 kts 136°
2026-05-05 07:10 51.61697 6.49485 30735 ft 461 kts 137°
2026-05-05 07:11 51.59556 6.53356 31094 ft 462 kts 137°
2026-05-05 07:11 51.57420 6.57215 31492 ft 461 kts 137°
2026-05-05 07:11 51.55299 6.61046 31955 ft 458 kts 137°
2026-05-05 07:11 51.53186 6.64855 32398 ft 456 kts 137°
2026-05-05 07:12 51.51074 6.68656 32771 ft 455 kts 137°
2026-05-05 07:12 51.48968 6.72438 33154 ft 454 kts 137°
2026-05-05 07:12 51.46865 6.76210 33466 ft 455 kts 137°
2026-05-05 07:12 51.44889 6.79750 33624 ft 458 kts 137°
2026-05-05 07:13 51.42760 6.83558 33958 ft 458 kts 137°
2026-05-05 07:13 51.40665 6.87300 34339 ft 455 kts 138°
2026-05-05 07:13 51.38483 6.90935 34666 ft 451 kts 141°
2026-05-05 07:13 51.36213 6.94490 34972 ft 450 kts 142°
2026-05-05 07:14 51.33994 6.97881 35449 ft 445 kts 142°
2026-05-05 07:14 51.31758 7.01280 35835 ft 443 kts 142°
2026-05-05 07:14 51.29526 7.04679 36086 ft 444 kts 141°
2026-05-05 07:14 51.27284 7.08106 36309 ft 446 kts 141°
2026-05-05 07:15 51.25044 7.11543 36574 ft 446 kts 141°
2026-05-05 07:15 51.22814 7.14974 36879 ft 446 kts 141°
2026-05-05 07:15 51.20569 7.18427 36881 ft 451 kts 141°
2026-05-05 07:16 51.16034 7.25393 36893 ft 452 kts 141°
2026-05-05 07:16 51.11540 7.32287 36895 ft 445 kts 141°
2026-05-05 07:17 51.07084 7.39094 36904 ft 443 kts 141°
2026-05-05 07:17 51.02637 7.45865 36905 ft 442 kts 141°
2026-05-05 07:18 50.98195 7.52610 36908 ft 442 kts 141°
2026-05-05 07:18 50.93744 7.59350 36888 ft 442 kts 141°
2026-05-05 07:19 50.89318 7.66036 36901 ft 442 kts 141°
2026-05-05 07:19 50.84853 7.72763 36911 ft 443 kts 141°
2026-05-05 07:20 50.80366 7.79474 36905 ft 444 kts 142°
2026-05-05 07:20 50.75858 7.86163 36914 ft 445 kts 142°
2026-05-05 07:21 50.71334 7.92864 36911 ft 446 kts 142°
2026-05-05 07:21 50.66830 7.99525 36908 ft 446 kts 142°
2026-05-05 07:22 50.62300 8.06208 36892 ft 446 kts 142°
2026-05-05 07:22 50.57995 8.13296 36902 ft 451 kts 134°
2026-05-05 07:23 50.54129 8.21071 36893 ft 450 kts 133°
2026-05-05 07:23 50.50287 8.28789 36889 ft 446 kts 134°
2026-05-05 07:24 50.46425 8.36387 36869 ft 443 kts 135°
2026-05-05 07:24 50.42573 8.43905 36881 ft 441 kts 135°
2026-05-05 07:25 50.38727 8.51394 36890 ft 440 kts 135°
2026-05-05 07:25 50.34758 8.58529 36891 ft 435 kts 139°
2026-05-05 07:26 50.30598 8.65410 36888 ft 435 kts 139°
2026-05-05 07:26 50.26430 8.72271 36866 ft 434 kts 139°
2026-05-05 07:27 50.22287 8.79136 36874 ft 434 kts 139°
2026-05-05 07:27 50.18152 8.86003 36881 ft 434 kts 139°
2026-05-05 07:28 50.14015 8.92863 36885 ft 434 kts 139°
2026-05-05 07:28 50.09873 8.99711 36878 ft 434 kts 139°
2026-05-05 07:29 50.05726 9.06549 36861 ft 434 kts 139°
2026-05-05 07:29 50.01610 9.13317 36872 ft 435 kts 139°
2026-05-05 07:30 49.97490 9.20073 36874 ft 435 kts 139°
2026-05-05 07:30 49.91192 9.30368 36875 ft 435 kts 139°
2026-05-05 07:31 49.87016 9.37168 36874 ft 435 kts 139°
2026-05-05 07:31 49.82836 9.43958 36875 ft 436 kts 139°
2026-05-05 07:32 49.78646 9.50746 36866 ft 435 kts 139°
2026-05-05 07:32 49.74460 9.57513 36865 ft 435 kts 139°
2026-05-05 07:33 49.70280 9.64251 36876 ft 434 kts 139°
2026-05-05 07:33 49.66087 9.70989 36871 ft 435 kts 139°
2026-05-05 07:34 49.61889 9.77718 36879 ft 435 kts 139°
2026-05-05 07:34 49.57714 9.84393 36882 ft 435 kts 139°
2026-05-05 07:35 49.53510 9.91098 36849 ft 435 kts 139°
2026-05-05 07:35 49.49299 9.97796 36874 ft 435 kts 139°
2026-05-05 07:36 49.45087 10.04478 36883 ft 435 kts 139°
2026-05-05 07:36 49.40874 10.11142 36890 ft 435 kts 139°
2026-05-05 07:37 49.36677 10.17765 36877 ft 435 kts 139°
2026-05-05 07:37 49.32446 10.24426 36884 ft 435 kts 139°
2026-05-05 07:38 49.28216 10.31070 36860 ft 436 kts 139°
2026-05-05 07:38 49.23944 10.37645 36891 ft 433 kts 144°
2026-05-05 07:39 49.18992 10.42688 36905 ft 426 kts 154°
2026-05-05 07:39 49.13857 10.47248 36898 ft 427 kts 154°
2026-05-05 07:40 49.08728 10.51854 36908 ft 428 kts 154°
2026-05-05 07:40 49.03599 10.56501 36897 ft 429 kts 154°
2026-05-05 07:41 48.98473 10.61146 36884 ft 429 kts 154°
2026-05-05 07:41 48.93377 10.65751 36892 ft 429 kts 154°
2026-05-05 07:42 48.88236 10.70385 36896 ft 430 kts 154°
2026-05-05 07:42 48.83075 10.75032 36882 ft 432 kts 153°
2026-05-05 07:43 48.78458 10.80985 36880 ft 442 kts 136°
2026-05-05 07:43 48.74372 10.87958 36867 ft 442 kts 136°
2026-05-05 07:44 48.70279 10.94930 36849 ft 442 kts 136°
2026-05-05 07:44 48.66194 11.01798 36860 ft 442 kts 136°
2026-05-05 07:45 48.62056 11.08701 36860 ft 442 kts 136°
2026-05-05 07:45 48.57919 11.15580 36865 ft 443 kts 136°
2026-05-05 07:46 48.53765 11.22470 36859 ft 443 kts 137°
2026-05-05 07:46 48.49616 11.29336 36866 ft 442 kts 137°
2026-05-05 07:47 48.45468 11.36183 36869 ft 441 kts 137°
2026-05-05 07:47 48.41320 11.43012 36871 ft 441 kts 137°
2026-05-05 07:48 48.37198 11.49782 36880 ft 441 kts 137°
2026-05-05 07:48 48.33045 11.56585 36882 ft 441 kts 137°
2026-05-05 07:49 48.28885 11.63383 36883 ft 441 kts 137°
2026-05-05 07:49 48.24653 11.70027 36882 ft 438 kts 141°
2026-05-05 07:50 48.20160 11.76202 36885 ft 438 kts 142°
2026-05-05 07:50 48.15655 11.82272 36884 ft 438 kts 142°
2026-05-05 07:51 48.11133 11.88411 36874 ft 439 kts 142°
2026-05-05 07:51 48.06616 11.94571 36877 ft 439 kts 142°
2026-05-05 07:52 48.02125 12.00690 36846 ft 440 kts 141°
2026-05-05 07:52 47.97601 12.06839 36866 ft 440 kts 141°
2026-05-05 07:53 47.93095 12.12947 36868 ft 440 kts 141°
2026-05-05 07:53 47.89296 12.18085 36870 ft 441 kts 141°
2026-05-05 07:54 47.84745 12.24225 36868 ft 441 kts 141°
2026-05-05 07:54 47.80185 12.30363 36871 ft 442 kts 141°
2026-05-05 07:55 47.75649 12.36454 36864 ft 442 kts 141°
2026-05-05 07:55 47.71082 12.42572 36874 ft 442 kts 141°
2026-05-05 07:56 47.66512 12.48682 36879 ft 442 kts 141°
2026-05-05 07:56 47.61935 12.54784 36868 ft 442 kts 141°
2026-05-05 07:57 47.57380 12.60919 36863 ft 443 kts 141°
2026-05-05 07:57 47.52846 12.67050 36873 ft 441 kts 141°
2026-05-05 07:58 47.48316 12.73152 36861 ft 440 kts 141°
2026-05-05 07:58 47.43795 12.79219 36871 ft 440 kts 141°
2026-05-05 07:59 47.39271 12.85276 36887 ft 440 kts 141°
2026-05-05 07:59 47.34742 12.91325 36921 ft 439 kts 141°
2026-05-05 08:00 47.30216 12.97355 36921 ft 438 kts 141°
2026-05-05 08:00 47.25677 13.03388 36907 ft 439 kts 142°
2026-05-05 08:01 47.21162 13.09372 36931 ft 440 kts 142°
2026-05-05 08:01 47.16577 13.15437 36936 ft 441 kts 142°
2026-05-05 08:02 47.12006 13.21471 36935 ft 442 kts 142°
2026-05-05 08:02 47.07451 13.27465 36934 ft 443 kts 141°
2026-05-05 08:03 47.02856 13.33500 36954 ft 444 kts 142°
2026-05-05 08:03 46.98255 13.39528 36973 ft 443 kts 142°
2026-05-05 08:04 46.93647 13.45551 36964 ft 443 kts 142°
2026-05-05 08:04 46.89040 13.51558 36971 ft 444 kts 142°
2026-05-05 08:05 46.84429 13.57554 36957 ft 444 kts 142°
2026-05-05 08:05 46.79808 13.63551 36973 ft 444 kts 142°
2026-05-05 08:06 46.75190 13.69529 36963 ft 444 kts 142°
2026-05-05 08:06 46.70567 13.75499 36964 ft 444 kts 142°
2026-05-05 08:07 46.65953 13.81444 36979 ft 442 kts 142°
2026-05-05 08:07 46.61381 13.87321 36977 ft 442 kts 142°
2026-05-05 08:08 46.56826 13.93163 36976 ft 442 kts 142°
2026-05-05 08:08 46.52164 13.99130 36974 ft 441 kts 142°
2026-05-05 08:09 46.47571 14.05036 36981 ft 441 kts 141°
2026-05-05 08:09 46.43163 14.11249 36994 ft 443 kts 139°
2026-05-05 08:10 46.38770 14.17548 37012 ft 445 kts 139°
2026-05-05 08:10 46.34333 14.23813 37008 ft 446 kts 139°
2026-05-05 08:11 46.29872 14.30063 37027 ft 447 kts 139°
2026-05-05 08:11 46.25400 14.36314 37018 ft 448 kts 139°
2026-05-05 08:12 46.20913 14.42585 37026 ft 449 kts 139°
2026-05-05 08:12 46.16440 14.48833 37011 ft 450 kts 139°
2026-05-05 08:13 46.11933 14.55113 37020 ft 451 kts 139°
2026-05-05 08:13 46.07416 14.61393 37022 ft 451 kts 139°
2026-05-05 08:14 46.02887 14.67674 37025 ft 452 kts 139°
2026-05-05 08:14 45.98354 14.73944 37017 ft 451 kts 139°
2026-05-05 08:15 45.93830 14.80188 37007 ft 451 kts 139°
2026-05-05 08:15 45.89301 14.86423 37008 ft 450 kts 139°
2026-05-05 08:16 45.84776 14.92638 37017 ft 450 kts 139°
2026-05-05 08:16 45.80276 14.98803 37017 ft 450 kts 139°
2026-05-05 08:17 45.75750 15.04991 37017 ft 450 kts 139°
2026-05-05 08:17 45.71214 15.11178 37005 ft 450 kts 139°
2026-05-05 08:18 45.66706 15.17312 37018 ft 450 kts 139°
2026-05-05 08:18 45.62142 15.23510 37011 ft 450 kts 139°
2026-05-05 08:19 45.57597 15.29665 37013 ft 450 kts 139°
2026-05-05 08:19 45.52979 15.35697 37006 ft 450 kts 141°
2026-05-05 08:20 45.48301 15.41635 37017 ft 450 kts 141°
2026-05-05 08:20 45.43649 15.47538 37017 ft 451 kts 141°
2026-05-05 08:21 45.38969 15.53490 37013 ft 451 kts 141°
2026-05-05 08:21 45.34284 15.59449 37020 ft 452 kts 141°
2026-05-05 08:22 45.29598 15.65397 37006 ft 452 kts 141°
2026-05-05 08:22 45.24907 15.71336 37021 ft 452 kts 141°
2026-05-05 08:23 45.20209 15.77271 37018 ft 452 kts 141°
2026-05-05 08:23 45.15504 15.83200 37026 ft 453 kts 141°
2026-05-05 08:24 45.10795 15.89121 37020 ft 453 kts 141°
2026-05-05 08:24 45.06081 15.95034 37012 ft 453 kts 141°
2026-05-05 08:25 45.01361 16.00943 37018 ft 453 kts 141°
2026-05-05 08:25 44.96641 16.06836 37020 ft 453 kts 141°
2026-05-05 08:26 44.91944 16.12687 37027 ft 453 kts 141°
2026-05-05 08:26 44.87218 16.18561 37032 ft 453 kts 141°
2026-05-05 08:27 44.82482 16.24436 37025 ft 453 kts 141°
2026-05-05 08:27 44.80911 16.26381 37034 ft 453 kts 141°